Regional Weather Roundup
Issued by NWS Newport/Morehead, NC

Current Version | Previous Version | Text Only | Print | Product List | Glossary Off
Versions: 1 2 3 4 5 6 7 8 9 10 11 12 13 14 15 16 17 18 19 20 21 22 23 24 25 26 27 28 29 30 31 32 33 34 35 36 37 38 39 40 41 42 43 44 45 46 47 48 49 50
000 ASUS42 KMHX 251122 RWRMHX WEATHER ROUNDUP FOR EASTERN NORTH CAROLINA NATIONAL WEATHER SERVICE NEWPORT/MOREHEAD CITY NC 700 AM EDT SAT OCT 25 2014 NOTE: "FAIR" INDICATES FEW OR NO CLOUDS BELOW 12,000 FEET WITH NO SIGNIFICANT WEATHER AND/OR OBSTRUCTIONS TO VISIBILITY NCZ015>017-031-032-045>047-102-103-251200- NORTH COAST CITY SKY/WX TMP DP RH WIND PRES REMARKS EDENTON CLEAR 44 43 97 CALM 29.99R ELIZABETH CITY CLEAR 47 42 83 W3 29.98R KITTY HAWK SUNNY 54 53 95 W3 29.95S MANTEO FOG 47 46 97 CALM 29.97R VSB 1 $$ NCZ045>047-081-094-103-104-251200- CENTRAL COAST CITY SKY/WX TMP DP RH WIND PRES REMARKS FRISCO CLEAR 54 53 97 NW5 29.96R SWANQUARTER N/A 46 N/A N/A N3 29.94S $$ NCZ095-097-098-100-101-251200- SOUTHERN COAST CITY SKY/WX TMP DP RH WIND PRES REMARKS BEAUFORT CLEAR 45 45 100 CALM 29.98R CEDAR ISLAND N/A 61 N/A N/A NW9 30.00S JACKSONVILLE CLEAR 45 44 97 CALM 29.99R PINEY ISLAND SUNNY 58 50 75 NW5 29.97R WILMINGTON CLEAR 46 44 93 CALM 29.99R $$ NCZ011>013-027>030-043-044-078>080-089-090>093-098-251200- COASTAL PLAIN CITY SKY/WX TMP DP RH WIND PRES REMARKS AHOSKIE CLEAR 37 37 97 CALM 29.99S CLINTON CLEAR 43 43 100 CALM 30.01R ELIZABETHTOWN CLEAR 48 46 94 CALM 30.00R GOLDSBORO CLEAR 46 45 93 SW2 29.98R FOG GREENVILLE LGT RAIN 41 41 100 CALM 30.01R VSB 1/2 HAVELOCK CLEAR 46 44 93 W5 29.99R KENANSVILLE CLEAR 40 40 99 CALM 30.01R KINSTON CLEAR 41 41 100 CALM 30.00R FOG NEW BERN CLEAR 46 43 89 CALM 30.00R RICHLANDS CLEAR 39 36 87 CALM 30.00R ROCKY MOUNT CLEAR 40 39 97 CALM 30.00R FOG WASHINGTON CLEAR 43 42 97 CALM 29.99S WHITEVILLE CLEAR 46 44 95 CALM 29.99S $$ AMZ130-135-150-152-154-156-158-170-250-252-270-ANZ085-086-088-633-658-670-251200- MARINE OBSERVATIONS STATION/POSITION TIME TEMP WIND PRES WAVE SWELL AIR SEA DIR/SP/G HT/PER HT/PER (UTC) (F) (DEG/KT/KT) (MB) (FT/S) (FT/S) CHESAPEAKE LIGHT 1100 60 350/ 18/ 19 1014.8 64 E VA BEACH 1100 63 66 340/ 14/ 16 1013.0 3/ 5 2/ 9 DUCK 1100 56 65 310/ 8/ 10 1013.8 2 E DUCK 1100 N/A 3/10 10 NE DUCK 1100 67 N/A 3/11 2/11 OREGON INLET 1100 56 64 290/ 2/ 4 1014.5 13E OREGON INLT 1100 69 N/A 4/10 2/11 HATTERAS CG 1100 62 65 330/ 11/ 13 1014.9 DIAMOND BUOY 1100 64 320/ 12/ 14 1014.3 3/ 9 2/ 9 17 S OCRACOKE 1000 VRB 10/ 12 1014.3 CAPE LOOKOUT 1100 60 350/ 6/ 6 1014.7 BEAUFORT LAB 1100 57 66 330/ 4/ 5 1014.2 30 SE NEW RIVER 1100 67 74 330/ 4/ 6 1014.5 2/ 8 2/ 8 5 SE WRIGHTSVLE 1100 59 71 320/ 10/ 10 N/A 225 S CAPE HAT 0959 71 77 10/ 8/ 12 1013.4 4/ 9 3/ 9 41 SE CHARLESTON 1100 69 78 350/ 6/ 10 1014.9 3/11 3/11 $$

USA.gov is the U.S. government's official web portal to all federal, state and local government web resources and services.